YAMAL 300K

Last updated on Oct. 23, 2020, 5:56 a.m. UTC

1 38978U 12061B   20296.73243892  .00000057  00000-0  00000+0 0  9993
2 38978   0.0135 152.9229 0000260 327.5569 357.7735  1.00274121 29186
UTC
Height (km)
Latitude
Longitude
Inclination
Orbital Period
UTC large
Height (km)
Speed (km/s)
/
Latitude / Longitude
Inclination (degrees)
Orbital Period (minutes)
Azimuth
Elevation
Range (km)
Doppler Factor
iOS Compass Heading
iOS Angle

Next 30 passes for location: Hong Kong

Rise time Rise Azimuth (degrees) Set time Set Azimuth (degrees) Duration Max altitude (degrees)

No matching passes for this satellites